User: anonymous   Login
Location: Unspecified
(0.0000°N, 0.0000°E)
Time: 02:38:40
(UTC+00:00)
Language:

Envisat - Orbit

View from above orbital plane
View from above orbital plane
View from above satellite
View from above satellite

Ground track
Ground track

The orbit data is extracted from the following two-line orbital elements,

1 27386U 02009A   17207.91135425 -.00000000 +00000-0 +13718-4 0  9999
2 27386 098.2284 251.5253 0001254 091.7520 268.3804 14.37899577806780
Epoch (UTC): 26 July 2017 21:52:21
Eccentricity: 0.0001254
inclination: 98.2284°
perigee height: 764 km
apogee height: 766 km
right ascension of ascending node: 251.5253°
argument of perigee: 91.7520°
revolutions per day: 14.37899577
mean anomaly at epoch: 268.3804°
orbit number at epoch: 80678

The dashed part of the orbit path shows where the satellite is in the earth's shadow,  

DLR